When you browse on this site, cookies collect data to enhance your experience and personalize the content and advertising you see.
Visit our Privacy Policy to learn more. By continuing to use the site, you agree to this use of cookies and data.
  • In Spain
  • List of Countries
  • For 7 days
  • Water Temperature
  • Weather Map
  • Weather Widgets
  • user-avatar
    Login

    Hourly Weather Tibissa

    Today, 22 August, Thursday

    Time Temperature Precipitation Wind Pressure Humidity
    00:00 +26°C° 0 mm 3 mps 687 mmHg 65%
    01:00 +25°C° 0 mm 2 mps 687 mmHg 67%
    02:00 +25°C° 0 mm 2 mps 687 mmHg 68%
    03:00 +25°C° 0 mm 1 mps 687 mmHg 68%
    04:00 +24°C° 0 mm 1 mps 686 mmHg 69%
    05:00 +25°C° 0 mm 1 mps 686 mmHg 67%
    06:00 +25°C° 0 mm 1 mps 687 mmHg 64%
    07:00 +25°C° 0 mm 1 mps 687 mmHg 62%
    08:00 +27°C° 0 mm 1 mps 687 mmHg 54%
    09:00 +29°C° 0 mm 1 mps 688 mmHg 46%
    10:00 +31°C° 0 mm 1 mps 688 mmHg 39%
    11:00 +32°C° 0 mm 1 mps 688 mmHg 35%
    12:00 +35°C° 0 mm 2 mps 688 mmHg 31%
    13:00 +36°C° 0 mm 2 mps 688 mmHg 28%
    14:00 +34°C° 1.1 mm 4 mps 688 mmHg 35%
    15:00 +32°C° 1.1 mm 5 mps 687 mmHg 42%
    16:00 +29°C° 1.1 mm 6 mps 686 mmHg 49%
    17:00 +28°C° 2.6 mm 5 mps 686 mmHg 54%
    18:00 +26°C° 2.6 mm 4 mps 686 mmHg 59%
    19:00 +25°C° 2.6 mm 3 mps 686 mmHg 63%
    20:00 +25°C° 0.1 mm 3 mps 687 mmHg 60%
    21:00 +26°C° 0.1 mm 2 mps 687 mmHg 56%
    22:00 +27°C° 0.1 mm 1 mps 688 mmHg 53%
    23:00 +26°C° 0 mm 1 mps 688 mmHg 55%

    Tomorrow, 23 August, Friday

    Time Temperature Precipitation Wind Pressure Humidity
    00:00 +26°C° 0 mm 1 mps 688 mmHg 57%
    01:00 +26°C° 0 mm 1 mps 688 mmHg 59%
    02:00 +25°C° 0 mm 1 mps 687 mmHg 61%
    03:00 +25°C° 0 mm 1 mps 687 mmHg 64%
    04:00 +24°C° 0 mm 1 mps 687 mmHg 66%
    05:00 +24°C° 0.1 mm 1 mps 687 mmHg 66%
    06:00 +24°C° 0.1 mm 1 mps 687 mmHg 65%
    07:00 +24°C° 0.1 mm 1 mps 687 mmHg 64%
    08:00 +26°C° 0.1 mm 1 mps 688 mmHg 60%
    09:00 +27°C° 0.1 mm 1 mps 688 mmHg 55%
    10:00 +28°C° 0.1 mm 1 mps 688 mmHg 50%
    11:00 +29°C° 0 mm 1 mps 688 mmHg 46%
    12:00 +30°C° 0 mm 2 mps 688 mmHg 42%
    13:00 +31°C° 0 mm 2 mps 688 mmHg 38%
    14:00 +30°C° 0.2 mm 2 mps 688 mmHg 43%
    15:00 +29°C° 0.2 mm 2 mps 687 mmHg 47%
    16:00 +28°C° 0.2 mm 3 mps 686 mmHg 51%
    17:00 +28°C° 0.1 mm 2 mps 686 mmHg 51%
    18:00 +28°C° 0.1 mm 2 mps 686 mmHg 51%
    19:00 +28°C° 0.1 mm 2 mps 686 mmHg 51%
    20:00 +27°C° 0 mm 2 mps 687 mmHg 53%
    21:00 +27°C° 0 mm 2 mps 687 mmHg 54%
    22:00 +27°C° 0 mm 2 mps 687 mmHg 55%
    23:00 +26°C° 0 mm 2 mps 687 mmHg 57%

    Day after tomorrow, 24 August, Saturday

    Time Temperature Precipitation Wind Pressure Humidity
    00:00 +26°C° 0 mm 2 mps 687 mmHg 58%
    01:00 +26°C° 0 mm 1 mps 687 mmHg 59%
    02:00 +25°C° 0 mm 1 mps 687 mmHg 59%
    03:00 +25°C° 0 mm 1 mps 686 mmHg 59%
    04:00 +24°C° 0 mm 1 mps 686 mmHg 59%
    05:00 +24°C° 0 mm 1 mps 686 mmHg 57%
    06:00 +24°C° 0 mm 1 mps 687 mmHg 54%
    07:00 +25°C° 0 mm 1 mps 687 mmHg 51%
    08:00 +26°C° 0 mm 1 mps 687 mmHg 46%
    09:00 +27°C° 0 mm 2 mps 688 mmHg 42%
    10:00 +29°C° 0 mm 2 mps 688 mmHg 37%
    11:00 +30°C° 0 mm 2 mps 688 mmHg 35%
    12:00 +31°C° 0 mm 2 mps 688 mmHg 33%
    13:00 +31°C° 0 mm 2 mps 688 mmHg 31%
    14:00 +31°C° 0.1 mm 3 mps 687 mmHg 35%
    15:00 +30°C° 0.1 mm 3 mps 687 mmHg 38%
    16:00 +29°C° 0.1 mm 3 mps 686 mmHg 42%
    17:00 +27°C° 0.1 mm 3 mps 686 mmHg 49%
    18:00 +26°C° 0.1 mm 4 mps 686 mmHg 57%
    19:00 +23°C° 0.1 mm 4 mps 686 mmHg 65%
    20:00 +24°C° 0 mm 3 mps 687 mmHg 64%
    21:00 +24°C° 0 mm 2 mps 687 mmHg 64%
    22:00 +24°C° 0 mm 1 mps 687 mmHg 63%
    23:00 +24°C° 0 mm 1 mps 687 mmHg 63%

    25 August, Sunday

    Time Temperature Precipitation Wind Pressure Humidity
    00:00 +24°C° 0 mm 1 mps 687 mmHg 62%
    01:00 +24°C° 0 mm 1 mps 687 mmHg 62%
    02:00 +24°C° 0 mm 1 mps 686 mmHg 63%
    03:00 +24°C° 0 mm 1 mps 686 mmHg 64%
    04:00 +24°C° 0 mm 1 mps 686 mmHg 65%
    05:00 +24°C° 0 mm 1 mps 686 mmHg 64%
    06:00 +24°C° 0 mm 1 mps 687 mmHg 63%
    07:00 +22°C° 0 mm 0 mps 687 mmHg 62%
    08:00 +23°C° 0 mm 0 mps 687 mmHg 58%
    09:00 +23°C° 0 mm 0 mps 688 mmHg 55%
    10:00 +26°C° 0 mm 1 mps 688 mmHg 52%
    11:00 +27°C° 0 mm 1 mps 688 mmHg 48%
    12:00 +28°C° 0 mm 2 mps 688 mmHg 45%
    13:00 +29°C° 0 mm 2 mps 688 mmHg 41%
    14:00 +29°C° 0.1 mm 2 mps 687 mmHg 44%
    15:00 +28°C° 0.1 mm 2 mps 687 mmHg 47%
    16:00 +27°C° 0.1 mm 2 mps 686 mmHg 50%
    17:00 +27°C° 0.2 mm 2 mps 686 mmHg 52%
    18:00 +27°C° 0.2 mm 2 mps 686 mmHg 53%
    19:00 +26°C° 0.2 mm 2 mps 686 mmHg 55%
    20:00 +26°C° 0 mm 2 mps 686 mmHg 58%
    21:00 +25°C° 0 mm 2 mps 687 mmHg 61%
    22:00 +25°C° 0 mm 2 mps 687 mmHg 64%
    23:00 +25°C° 0 mm 1 mps 687 mmHg 65%

    26 August, Monday

    Time Temperature Precipitation Wind Pressure Humidity
    00:00 +24°C° 0 mm 1 mps 687 mmHg 66%
    01:00 +24°C° 0 mm 1 mps 686 mmHg 68%
    02:00 +24°C° 0 mm 1 mps 686 mmHg 67%
    03:00 +24°C° 0 mm 1 mps 686 mmHg 66%
    04:00 +24°C° 0 mm 1 mps 686 mmHg 66%
    05:00 +24°C° 0 mm 1 mps 687 mmHg 63%
    06:00 +25°C° 0 mm 1 mps 687 mmHg 60%
    07:00 +25°C° 0 mm 1 mps 687 mmHg 58%
    08:00 +26°C° 0 mm 1 mps 688 mmHg 52%
    09:00 +28°C° 0 mm 2 mps 688 mmHg 46%
    10:00 +29°C° 0 mm 2 mps 689 mmHg 40%
    11:00 +30°C° 0 mm 3 mps 689 mmHg 37%
    12:00 +31°C° 0 mm 3 mps 689 mmHg 35%
    13:00 +32°C° 0 mm 4 mps 689 mmHg 32%
    14:00 +32°C° 0 mm 4 mps 688 mmHg 32%
    15:00 +32°C° 0 mm 4 mps 688 mmHg 32%
    16:00 +33°C° 0 mm 4 mps 688 mmHg 31%
    17:00 +32°C° 0 mm 4 mps 688 mmHg 36%
    18:00 +30°C° 0 mm 4 mps 688 mmHg 40%
    19:00 +29°C° 0 mm 5 mps 688 mmHg 45%
    20:00 +28°C° 0 mm 4 mps 688 mmHg 50%
    21:00 +27°C° 0 mm 4 mps 688 mmHg 55%
    22:00 +26°C° 0 mm 4 mps 689 mmHg 60%
    23:00 +25°C° 0 mm 3 mps 689 mmHg 62%

    27 August, Tuesday

    Time Temperature Precipitation Wind Pressure Humidity
    00:00 +25°C° 0 mm 3 mps 689 mmHg 64%
    01:00 +24°C° 0 mm 2 mps 689 mmHg 66%
    02:00 +24°C° 0 mm 2 mps 688 mmHg 68%
    03:00 +23°C° 0 mm 2 mps 688 mmHg 71%
    04:00 +23°C° 0 mm 1 mps 688 mmHg 73%
    05:00 +22°C° 0 mm 1 mps 688 mmHg 74%
    06:00 +22°C° 0 mm 1 mps 688 mmHg 74%
    07:00 +22°C° 0 mm 1 mps 689 mmHg 74%
    08:00 +24°C° 0 mm 1 mps 689 mmHg 65%
    09:00 +25°C° 0 mm 1 mps 690 mmHg 56%
    10:00 +26°C° 0 mm 2 mps 690 mmHg 47%
    11:00 +27°C° 0 mm 2 mps 690 mmHg 39%
    12:00 +29°C° 0 mm 3 mps 690 mmHg 32%
    13:00 +30°C° 0 mm 3 mps 690 mmHg 24%
    14:00 +30°C° 0 mm 4 mps 690 mmHg 23%
    15:00 +30°C° 0 mm 4 mps 689 mmHg 22%
    16:00 +32°C° 0 mm 4 mps 689 mmHg 21%
    17:00 +30°C° 0 mm 4 mps 689 mmHg 24%
    18:00 +29°C° 0 mm 4 mps 689 mmHg 26%
    19:00 +29°C° 0 mm 4 mps 688 mmHg 28%
    20:00 +28°C° 0 mm 4 mps 689 mmHg 34%
    21:00 +27°C° 0 mm 3 mps 689 mmHg 41%
    22:00 +25°C° 0 mm 3 mps 689 mmHg 48%
    23:00 +25°C° 0 mm 3 mps 689 mmHg 51%
    Show more